EW2785 Weather Reports


Display with metric or nautical units.
time (UTC)temp
F
wind
direction
speed
MPH
gust
MPH
rain 1hr
in
rain 24hr
in
rain mn
in
humidity
%
barometer
mb
20260902194534 70 128 3.0 6.0 0.00 0.00 0.00 76 1018.3
20260902193032 69 120 2.0 4.0 0.00 0.00 0.00 76 1018.5
20260902191536 70 119 4.0 7.0 0.00 0.00 0.00 75 1018.8
20260902190032 70 129 2.0 5.0 0.00 0.00 0.00 73 1018.8
20260902184530 70 143 2.0 8.0 0.00 0.00 0.00 73 1018.6
20260902183029 70 144 1.0 6.0 0.00 0.00 0.00 74 1018.7
20260902181529 69 125 0.0 7.0 0.00 0.00 0.00 74 1019.0
20260902180028 70 128 1.0 5.0 0.00 0.00 0.00 72 1019.0
20260902174529 70 130 2.0 6.0 0.00 0.00 0.00 72 1018.9
20260902173027 70 111 2.0 7.0 0.00 0.00 0.00 71 1019.0
20260902171527 70 121 2.0 7.0 0.00 0.00 0.00 70 1018.8
20260902170024 70 123 3.0 7.0 0.00 0.00 0.00 70 1018.9
20260902164526 69 131 3.0 5.0 0.00 0.00 0.00 69 1019.2
20260902163023 69 118 3.0 7.0 0.00 0.00 0.00 70 1019.3
20260902161522 69 134 0.0 5.0 0.00 0.00 0.00 72 1019.5
20260902160018 68 140 1.0 4.0 0.00 0.00 0.00 74 1019.5
20260902154526 68 129 2.0 7.0 0.00 0.00 0.00 73 1019.6
20260902153016 67 134 1.0 5.0 0.00 0.00 0.00 73 1019.9
20260902151515 67 146 1.0 3.0 0.00 0.00 0.00 73 1020.1
20260902150013 67 157 1.0 5.0 0.00 0.00 0.00 73 1020.0
20260902144527 67 119 2.0 5.0 0.00 0.00 0.00 73 1020.1
20260902143016 67 120 1.0 3.0 0.00 0.00 0.00 73 1020.2
20260902141519 67 128 1.0 5.0 0.00 0.00 0.00 73 1020.3
20260902140016 67 128 0.0 4.0 0.00 0.00 0.00 73 1019.9
20260902134513 67 128 1.0 2.0 0.00 0.00 0.00 75 1019.8
20260902133003 66 130 0.0 4.0 0.00 0.00 0.00 74 1019.7
20260902131504 66 130 2.0 5.0 0.00 0.00 0.00 74 1019.4
20260902130001 66 148 0.0 3.0 0.00 0.03 0.00 76 1019.5
20260902124607 66 132 0.0 4.0 0.00 0.03 0.00 76 1019.3
20260902123103 66 159 1.0 3.0 0.00 0.03 0.00 77 1019.4
20260902121608 65 139 0.0 3.0 0.00 0.03 0.00 77 1019.3
20260902120055 64 142 1.0 5.0 0.00 0.07 0.00 77 1019.3
20260902114554 64 138 0.0 3.0 0.00 0.07 0.00 77 1019.5
20260902113104 64 138 0.0 2.0 0.00 0.07 0.00 77 1019.6
20260902111555 64 138 0.0 1.0 0.00 0.07 0.00 78 1019.8
20260902110055 64 138 0.0 2.0 0.00 0.13 0.00 77 1019.7
20260902104556 64 138 0.0 3.0 0.00 0.13 0.00 77 1019.7
20260902103050 64 138 0.0 3.0 0.00 0.13 0.00 77 1019.6
20260902101557 64 150 0.0 6.0 0.00 0.13 0.00 76 1019.5
20260902094545 64 132 0.0 2.0 0.00 0.14 0.00 76 1018.9
20260902093047 64 211 0.0 2.0 0.00 0.14 0.00 76 1019.1
20260902091543 65 148 0.0 2.0 0.00 0.14 0.00 75 1019.0
20260902090043 65 146 0.0 3.0 0.00 0.14 0.00 75 1019.0
20260902084551 65 126 1.0 2.0 0.00 0.14 0.00 76 1018.8
20260902083046 65 126 0.0 2.0 0.00 0.14 0.00 77 1018.7
20260902081548 65 126 0.0 3.0 0.00 0.14 0.00 76 1018.7
20260902080041 65 149 0.0 2.0 0.00 0.14 0.00 77 1018.9
20260902074540 65 129 0.0 1.0 0.00 0.14 0.00 77 1018.9
20260902073049 65 129 0.0 1.0 0.00 0.14 0.00 78 1019.0
20260902071541 65 129 0.0 2.0 0.00 0.14 0.00 78 1018.9
20260902070039 65 129 0.0 3.0 0.00 0.14 0.00 78 1018.9
20260902064547 65 142 1.0 3.0 0.00 0.14 0.00 79 1018.9
20260902063048 65 142 0.0 4.0 0.00 0.14 0.00 79 1019.1
20260902061535 65 142 0.0 6.0 0.00 0.14 0.00 80 1018.9
20260902060034 65 138 0.0 1.0 0.00 0.14 0.00 83 1018.7
20260902054531 65 138 1.0 3.0 0.00 0.14 0.00 84 1018.5
20260902053031 65 137 0.0 1.0 0.00 0.14 0.00 85 1018.5
20260902051530 65 137 0.0 1.0 0.00 0.14 0.00 86 1018.5
20260902050028 65 137 0.0 2.0 0.00 0.14 0.00 86 1018.5
20260902044527 65 137 0.0 2.0 0.00 0.14 0.00 87 1018.3
20260902043026 65 137 0.0 5.0 0.00 0.14 0.00 87 1018.3
20260902041524 65 135 0.0 1.0 0.00 0.14 0.00 88 1018.4
20260902040023 65 135 1.0 2.0 0.00 0.14 0.14 88 1018.2
20260902034524 65 141 1.0 4.0 0.00 0.14 0.14 88 1017.9
20260902033019 65 150 0.0 2.0 0.00 0.14 0.14 88 1017.8
20260902031519 65 150 0.0 1.0 0.00 0.14 0.14 88 1017.6
20260902030017 65 150 0.0 2.0 0.00 0.14 0.14 87 1017.5
20260902024517 65 150 0.0 1.0 0.00 0.14 0.14 87 1017.6
20260902023019 65 150 0.0 3.0 0.00 0.14 0.14 87 1017.8
20260902021516 65 209 0.0 0.0 0.00 0.14 0.14 87 1017.7
20260902020015 65 209 1.0 3.0 0.00 0.14 0.14 87 1017.6
20260902014529 66 137 0.0 4.0 0.00 0.14 0.14 86 1017.5
20260902013014 65 136 0.0 1.0 0.00 0.14 0.14 86 1017.2
20260902011532 65 136 0.0 2.0 0.00 0.14 0.14 86 1017.3
20260902010012 65 136 1.0 4.0 0.00 0.14 0.14 87 1017.1
20260902004511 65 198 0.0 0.0 0.00 0.14 0.14 87 1017.3
20260902003013 65 198 0.0 0.0 0.00 0.14 0.14 87 1017.2
20260902001513 66 198 0.0 0.0 0.00 0.14 0.14 87 1017.3
20260902000010 66 213 0.0 1.0 0.00 0.14 0.14 86 1017.1
20260901234510 66 168 0.0 1.0 0.00 0.14 0.14 85 1016.9
20260901233009 66 167 0.0 1.0 0.00 0.14 0.14 85 1016.7
20260901231510 67 142 0.0 2.0 0.00 0.14 0.14 85 1016.7
20260901230009 67 142 0.0 2.0 0.00 0.14 0.14 84 1016.7
20260901224511 67 142 0.0 3.0 0.00 0.14 0.14 84 1016.5
20260901223011 67 133 1.0 4.0 0.00 0.14 0.14 84 1016.6
20260901221507 67 130 2.0 5.0 0.00 0.14 0.14 84 1016.4
20260901220007 67 128 1.0 3.0 0.00 0.14 0.14 84 1016.7
20260901214519 67 126 1.0 5.0 0.00 0.14 0.14 84 1016.7
20260901213006 67 138 1.0 5.0 0.00 0.14 0.14 83 1016.5
20260901211508 68 120 1.0 5.0 0.00 0.14 0.14 83 1016.3
20260901210007 68 153 1.0 3.0 0.00 0.14 0.14 84 1016.1
20260901204504 68 135 0.0 3.0 0.00 0.14 0.14 83 1016.1
20260901203004 68 135 2.0 4.0 0.00 0.14 0.14 82 1016.1
20260901201504 69 143 0.0 2.0 0.00 0.14 0.14 82 1016.1
20260901200114 69 176 0.0 2.0 0.00 0.14 0.14 84 1016.0